Current Version              Previous Version:    01  02  03  04  05  06  07  08  09  10  11  12  13  14  15  16  17  18  19  20  21  22  23  24  25  26  27  28  29  30  
   31  32  33  34  35  36  37  38  39  40  41  42  43  44  45  46  47  48  49  50  51  52  53  54  55  56  57  58  59  60  

[Printable]
879
ASUS44 KFWD 302105
RWRTX
NORTH TEXAS HOURLY WEATHER ROUNDUP
NATIONAL WEATHER SERVICE FORT WORTH TX
ISSUED BY NATIONAL WEATHER SERVICE TULSA OK
400 PM CDT TUE SEP 30 2014

NOTE: "FAIR" INDICATES FEW OR NO CLOUDS BELOW 12,000 FEET WITH NO
SIGNIFICANT WEATHER AND/OR OBSTRUCTIONS TO VISIBILITY.

TXZ118-119-302200-
DALLAS/FORT WORTH METROPLEX

CITY           SKY/WX    TMP DP  RH WIND       PRES   REMARKS
DFW AIRPORT    PTSUNNY   90  64  42 SE7       29.77F HX  91
DALLAS LOVE    PTSUNNY   91  65  41 SE14      29.77F HX  93
FTW MEACHAM    MOSUNNY   92  61  35 S8        29.76F HX  92
DAL-EXECUTIVE  MOSUNNY   90  62  39 SE10      29.77F HX  90
FTW-ALLIANCE   MOSUNNY   91  61  36 S13       29.76F HX  91
FTW-NAS-JRB    MOSUNNY   94  57  28 SE12      29.81F HX  92
FTW-SPINKS     PTSUNNY   93  59  31 S10       29.79F HX  92
ARLINGTON      MOSUNNY   89  62  40 SE7       29.78F
GRAND PRAIRIE  SUNNY     88  63  42 MISG      29.79F
MESQUITE       PTCLDY    90  61  37 SE9       29.78F
$$

TXZ091>094-102>105-117-120-121-131>134-302200-
NORTH CENTRAL TEXAS

CITY           SKY/WX    TMP DP  RH WIND       PRES   REMARKS
SHRMAN/DENISON PTCLDY    89  60  38 S8        29.80F
GAINESVILLE    SUNNY     88  64  44 SE10      29.80F
BOWIE          PTCLDY    91  56  30 SE12G17   29.77F
BRIDGEPORT     PTCLDY    91  51  25 SW12      29.79F
DECATUR        PTCLDY    89  56  32 S13G18    29.79F
DENTON         MOSUNNY   90  62  39 SE16      29.77F HX  90
MCKINNEY       MOSUNNY   89  63  41 S16       29.78F HX  90
GREENVILLE     MOSUNNY   90  61  37 SE12      29.79F
TERRELL        PTSUNNY   91  66  43 E14       29.79F HX  93
WAXAHACHIE     PTCLDY    91  64  39 S9G16     29.79F HX  92
CLEBURNE       CLEAR     91  59  33 S13       29.79F HX  90
GRANBURY       PTCLDY    92  55  28 E8        29.78F HX  90
$$

TXZ083>090-098>101-113>116-127>130-139>142-154-155-302200-
WESTERN NORTH TEXAS

CITY           SKY/WX    TMP DP  RH WIND       PRES   REMARKS
WICHITA FALLS  NOT AVBL
WF-KICKAPOO    CLEAR     91  51  25 S13G21    29.77F
ABILENE        NOT AVBL
ABILENE-DYESS  SUNNY     91  58  33 S13G21    29.77F
BRECKENRIDGE   CLEAR     92  53  26 S15       29.76F HAZE    HX  90
GRAHAM         CLEAR     93  53  25 S12G17    29.74F HX  90
MINERAL WELLS  SUNNY     91  54  28 S10       29.76F
STEPHENVILLE   MOSUNNY   89  53  28 S8        29.82F
COMANCHE       CLEAR     91  52  26 SE9       29.80F
BROWNWOOD      SUNNY     88  57  35 SE7G18    29.79F
COLEMAN        SUNNY     91  53  28 SW10G16   29.80F
BRADY          PTCLDY    90  59  35 S7        29.80F
$$

TXZ143>147-156>162-174-175-302200-
CENTRAL TEXAS

CITY           SKY/WX    TMP DP  RH WIND       PRES   REMARKS
WACO           MOSUNNY   92  62  36 S13       29.78F HX  92
WACO-TSTC      PTCLDY    91  63  38 S7        29.78F HX  92
WACO-MCGREGOR  SUNNY     91  61  35 S13G18    29.78F HX  91
HILLSBORO      MOCLDY    89  61  38 S9G16     29.78F
CORSICANA      PTSUNNY   91  65  41 SE17      29.79F HX  93
HEARNE         PTCLDY    89  69  52 E7        29.78F HX  93
TEMPLE         MOSUNNY   90  63  40 S13       29.79F HX  90
KILLEEN GRAY   MOSUNNY   90  63  40 E7        29.80F HX  90
KILLEEN-SKYLRK MOSUNNY   88  63  42 SE9       29.80F
GATESVILLE     PTCLDY    90  59  35 SE5       29.81F
HAMILTON       PTCLDY    88  53  30 SE9G21    29.81F
LAMPASAS       PTCLDY    89  65  44 SE8       29.80F HX  91
$$

TXZ095>097-106>112-122>126-135>138-148>153-164>167-302200-
EAST TEXAS

CITY           SKY/WX    TMP DP  RH WIND       PRES   REMARKS
PARIS          PTSUNNY   84  63  48 E7        29.81F
MOUNT PLEASANT PTCLDY    87  64  46 S6        29.82F
GILMER         PTCLDY    88  66  48 CALM      29.82F HX  90
MINEOLA        PTCLDY    90  66  45 S8        29.80F HX  92
TYLER          PTSUNNY   90  66  45 S10       29.80F HX  92
LONGVIEW       MOSUNNY   89  66  46 VRB6      29.80F HX  91
PALESTINE      PTCLDY    89  69  50 SE8       29.81F HX  93
JACKSONVILLE   PTCLDY    88  67  50 SE8       29.84F HX  91
HENDERSON      CLOUDY    87  67  50 E6        29.82S
NACOGDOCHES    SUNNY     88  70  55 S6        29.81F HX  92
LUFKIN         MOSUNNY   89  69  51 S8        29.81F HX  93
$$

SUPPLEMENTAL OBSERVATIONS (CENTRAL)

CITY           SKY/WX    TMP DP  RH WIND       PRES   REMARKS
$$

SUPPLEMENTAL OBSERVATIONS (WEST)

CITY           SKY/WX    TMP DP  RH WIND       PRES   REMARKS
$$

SUPPLEMENTAL OBSERVATIONS (EAST)

CITY           SKY/WX    TMP DP  RH WIND       PRES   REMARKS
$$

SUPPLEMENTAL OBSERVATIONS ARE A COLLECTION OF AUTOMATED INSTRUMENTS
THAT ARE MAINTAINED BY A VARIETY OF FEDERAL AND STATE AGENCIES.
CERTAIN ELEMENTS...SUCH AS HUMIDITY VALUES AND SUSTAINED WIND
SPEEDS...MAY BE ESTIMATED.